Weather History for KEMP - June, 2013

Change the Weather History Date:

Saturday, June 29, 2013

  Actual Average Record
Temperature  
Mean Temperature 74 °F 77 °F  
Max Temperature 86 °F 87 °F 103 °F (2012)
Min Temperature 61 °F 66 °F 53 °F (2000)
Degree Days  
Heating Degree Days 0 0  
Month to date heating degree days 12 5  
Since 1 June heating degree days 12 5  
Since 1 July heating degree days 4994 4816  
Cooling Degree Days 9 12  
Month to date cooling degree days 295 252  
Year to date cooling degree days 411 371  
Since 1 June cooling degree days 295 252  
Growing Degree Days 24 (Base 50)    
Moisture  
Dew Point 55 °F    
Average Humidity 58    
Maximum Humidity 84    
Minimum Humidity 31    
Precipitation  
Precipitation 0.00 in 0.13 in 1.55 in (2007)
Month to date precipitation 1.41 5.71  
Year to date precipitation 13.98 18.39  
Sea Level Pressure  
Sea Level Pressure 29.90 in    
Wind  
Wind Speed 13 mph (NW)    
Max Wind Speed 29 mph    
Max Gust Speed 39 mph    
Visibility 10 miles    
Events      
T = Trace of Precipitation, MM = Missing Value Source: NWS Daily Summary

Daily Weather History Graph

Daily Weather History Graph

Search for Another Location

Airport or City:

Trip Planner

Search our weather history database for the weather conditions in past years. The results will help you decide how hot, cold, wet, or windy it might be!

Date:

Astronomy

Jun. 29, 2013 Rise Set
Actual Time 6:04 AM CDT 8:52 PM CDT
Civil Twilight 5:32 AM CDT 9:23 PM CDT
Nautical Twilight 4:52 AM CDT 10:03 PM CDT
Astronomical Twilight 4:07 AM CDT 10:48 PM CDT
Moon 12:27 AM CDT (6/29) 1:10 PM CDT (6/29)
Length of Visible Light 15h 51m
Length of Day
14h 48m
Waning Gibbous, 55% of the Moon is Illuminated
Jun 29
Waning Gibbous
Jun 29
Last Quarter
Jul 8
New
Jul 15
First Quarter
Jul 22
Full

Hourly Weather History & Observations

Time (CDT) Temp. Heat Index Dew Point Humidity Pressure Visibility Wind Dir Wind Speed Gust Speed Precip Events Conditions
12:53 AM 66.0 °F - 57.9 °F 75% 29.90 in 10.0 mi WNW 3.5 mph - N/A   Clear
1:53 AM 64.0 °F - 57.9 °F 80% 29.90 in 10.0 mi NW 4.6 mph - N/A   Clear
2:53 AM 66.0 °F - 57.0 °F 73% 29.91 in 10.0 mi NW 5.8 mph - N/A   Clear
3:53 AM 64.0 °F - 55.9 °F 75% 29.92 in 10.0 mi West 4.6 mph - N/A   Clear
4:53 AM 64.0 °F - 55.9 °F 75% 29.92 in 10.0 mi WNW 5.8 mph - N/A   Clear
5:53 AM 63.0 °F - 55.9 °F 78% 29.92 in 10.0 mi WNW 5.8 mph - N/A   Clear
6:53 AM 63.0 °F - 57.0 °F 81% 29.93 in 10.0 mi West 3.5 mph - N/A   Clear
7:53 AM 69.1 °F - 57.9 °F 68% 29.94 in 10.0 mi WNW 6.9 mph - N/A   Clear
8:53 AM 75.0 °F - 57.0 °F 53% 29.94 in 10.0 mi NW 9.2 mph - N/A   Clear
9:53 AM 79.0 °F - 55.9 °F 45% 29.94 in 10.0 mi NW 15.0 mph 20.7 mph N/A   Clear
10:53 AM 82.0 °F 81.4 °F 55.0 °F 39% 29.93 in 10.0 mi NNW 18.4 mph 28.8 mph N/A   Clear
11:53 AM 82.9 °F 82.0 °F 55.0 °F 38% 29.93 in 10.0 mi NNW 23.0 mph 29.9 mph N/A   Clear
12:53 PM 84.0 °F 82.5 °F 53.1 °F 34% 29.92 in 10.0 mi NNW 23.0 mph 35.7 mph N/A   Partly Cloudy
1:53 PM 84.9 °F 83.2 °F 53.1 °F 33% 29.90 in 10.0 mi NNW 25.3 mph 34.5 mph N/A   Scattered Clouds
2:53 PM 84.9 °F 83.2 °F 53.1 °F 33% 29.88 in 10.0 mi NW 23.0 mph 31.1 mph N/A   Clear
3:53 PM 84.9 °F 83.2 °F 53.1 °F 33% 29.87 in 10.0 mi NNW 20.7 mph 39.1 mph N/A   Clear
4:53 PM 84.9 °F - 50.0 °F 30% 29.87 in 10.0 mi NNW 20.7 mph 35.7 mph N/A   Clear
5:53 PM 84.0 °F - 50.0 °F 31% 29.86 in 10.0 mi NNW 25.3 mph 36.8 mph N/A   Clear
6:53 PM 82.0 °F - 51.1 °F 34% 29.86 in 10.0 mi NNW 18.4 mph 32.2 mph N/A   Clear
7:53 PM 80.1 °F - 52.0 °F 38% 29.86 in 10.0 mi North 17.3 mph 23.0 mph N/A   Clear
8:53 PM 77.0 °F - 53.1 °F 43% 29.87 in 10.0 mi North 8.1 mph - N/A   Mostly Cloudy
9:53 PM 73.9 °F - 54.0 °F 50% 29.88 in 10.0 mi North 11.5 mph - N/A   Mostly Cloudy
10:53 PM 71.1 °F - 55.0 °F 57% 29.91 in 10.0 mi North 10.4 mph - N/A   Scattered Clouds
11:53 PM 68.0 °F - 55.0 °F 63% 29.92 in 10.0 mi North 4.6 mph - N/A   Clear